{"data":{"norad_id":63970,"intl_designator":"2025-099U","name":"STARLINK-34084","alt_names":[],"object_type":"PAYLOAD","status":"ACTIVE","operator":null,"country":"US","launch_date":"2025-05-13","launch_site_code":"AFETR","launch_vehicle":null,"mission":null,"orbit_class":"UNKNOWN","rcs_meters":null,"size_class":null,"mass_kg":null,"dimensions":null,"purposes":["comms"],"wikipedia_slug":null,"has_3d_model":false,"image_url":null,"decayed_at":null,"tle_current":{"epoch":"2026-09-19T02:50:48.205536Z","epoch_age_seconds":263089,"freshness":"STALE","line1":"1 63970U 25099U   26262.11861349  .00006182  00000+0  23400-3 0  9999","line2":"2 63970  43.0021 163.4079 0001400 265.8457  94.2235 15.27580232 76923","mean_motion":15.27580232,"eccentricity":0.00014,"inclination_deg":43.0021,"raan_deg":163.4079,"arg_perigee_deg":265.8457,"mean_anomaly_deg":94.2235,"bstar":0.000234,"rev_number":7692,"period_min":94.266734396966,"perigee_km":482.08783539209,"apogee_km":484.00896730447,"semimajor_km":6861.1854013483,"source":"CELESTRAK","updated_at":"2026-09-21T09:00:35.177514Z"}}}